Location: Carlisle
(34.5501°N, 84.5969°W)
Time: 03:35:05
(UTC+00:00)

CAS-4B - Visible Passes

Search period start: 26 March 2023 00:00
Search period end: 05 April 2023 00:00
Orbit: 510 x 527 km, 43.0° (Epoch: 25 March)

Date Brightness Start Highest point End Pass type
(mag) Time Alt. Az. Time Alt. Az. Time Alt. Az.
26 Mar ? 09:56:17 28° S 09:57:25 34° SE 10:01:04 10° ENE visible
27 Mar ? 09:41:05 40° SSE 09:41:12 40° SE 09:44:58 10° ENE visible
28 Mar ? 09:25:44 41° ESE 09:25:44 41° ESE 09:28:49 10° ENE visible
28 Mar ? 11:00:59 10° W 11:04:45 39° NNW 11:08:33 10° NE visible
29 Mar ? 09:10:17 31° E 09:10:17 31° E 09:12:35 10° ENE visible
29 Mar ? 10:45:15 12° W 10:48:32 35° NNW 10:52:16 10° NE visible
30 Mar ? 08:54:44 23° ENE 08:54:44 23° ENE 08:56:19 10° ENE visible
30 Mar ? 10:29:41 16° WNW 10:32:17 33° NNW 10:35:57 10° NE visible
31 Mar ? 08:39:05 16° ENE 08:39:05 16° ENE 08:40:00 10° ENE visible
31 Mar ? 10:14:03 20° WNW 10:16:00 30° NNW 10:19:35 10° NE visible
01 Apr ? 08:23:22 12° ENE 08:23:22 12° ENE 08:23:37 10° ENE visible
01 Apr ? 09:58:19 23° NW 09:59:41 29° NNW 10:03:12 10° NE visible
02 Apr ? 09:42:33 25° NNW 09:43:20 27° N 09:46:47 10° NE visible
03 Apr ? 09:26:43 26° NNW 09:26:56 26° N 09:30:21 10° NE visible
04 Apr ? 09:10:51 25° N 09:10:51 25° N 09:13:53 10° NE visible
04 Apr ? 10:47:32 10° NW 10:51:01 28° NNE 10:54:30 10° ENE visible
